Location: Antioch Baptist Church
(32.7160°N, 96.7483°W)
Time: 21:32:42
(UTC+00:00)

Daily predictions for brighter satellites

Satellite Brightness Start Highest point End
(mag) Time Altitude Azimuth Time Altitude Azimuth Time Altitude Azimuth
Milstar 3 Cent rocket 3.6 12:01:50 15° WSW 12:05:34 34° SSW 12:12:54 10° SE
Meteor 2-17 Rocket 4.3 12:00:07 10° N 12:06:11 78° W 12:12:12 10° S
Cosmos 1933 3.4 12:06:47 10° NNW 12:10:37 53° W 12:14:28 10° S
ERS-2 1.5 12:08:28 10° NNE 12:11:24 83° ESE 12:14:19 10° SSW
Cosmos 1627 Rocket 4.5 12:05:53 10° N 12:12:15 75° W 12:18:32 10° S
SAR-Lupe-2 4.2 12:09:04 10° NNE 12:12:36 58° E 12:16:07 10° S
Cosmos 1862 3.3 12:09:20 10° SSW 12:13:02 49° W 12:16:46 10° N
Cosmos 2151 2.9 12:08:58 10° S 12:13:07 85° E 12:17:20 10° N
COSMO-SKYMED 1 2.8 12:09:03 10° S 12:13:14 49° W 12:17:27 10° NNW
Meteor 2-3 Rocket 4.3 12:08:22 10° SW 12:13:21 33° WNW 12:18:22 10° NNW
PSLV R/B 3.5 12:10:30 10° N 12:14:44 62° WNW 12:18:55 10° SSW
GENESIS II 4.0 12:18:37 10° SSW 12:22:25 79° WNW 12:26:18 10° NNE
USA 215 3.5 12:16:57 10° NNE 12:23:08 48° NW 12:29:20 10° WSW
Meteor 1-31 Rocket 4.4 12:20:26 10° NNE 12:23:58 37° E 12:27:31 10° SSE
SJ-7 4.4 12:22:29 10° NNE 12:26:36 89° ESE 12:30:40 10° SSW
BlueWalker 3 2.1 12:25:35 14° NW 12:28:47 56° SW 12:32:29 10° SSE
SKYMED 3 4.5 12:25:20 10° SSE 12:29:29 89° ENE 12:33:37 10° NNW
ATLAS 2A CENTAUR R/B 3.5 12:32:19 10° WSW 12:34:35 15° SSW 12:36:07 10° S
SMAP 3.4 12:32:35 10° NNE 12:37:14 71° ESE 12:41:51 10° S
Cosmos 1110 Rocket 4.0 12:32:44 10° NNW 12:38:02 72° WSW 12:43:16 10° S
Cosmos 1842 Rocket 3.8 12:34:21 10° N 12:38:48 78° E 12:43:14 10° S
BREEZE-M R/B 3.2 12:32:26 10° NW 12:39:12 83° SW 12:42:39 10° SE
Aureole 2 4.2 12:36:41 10° NNW 12:39:42 74° ENE 12:42:33 10° SSE
Cosmos 1437 Rocket 3.1 12:38:11 10° SSW 12:41:40 38° W 12:45:08 10° N
Cosmos 1782 4.3 12:39:31 10° NW 12:42:00 17° W 12:44:29 10° SW
H-2A R/B 3.6 12:40:41 10° NW 12:42:23 12° WNW 12:44:06 10° W
Helios 1B rocket 2.8 12:41:15 10° N 12:44:58 40° WNW 12:48:41 10° SW
CENTAUR R/B 4.5 12:37:26 10° NNW 12:45:22 40° NE 12:53:52 10° ESE
CZ-4B R/B 4.1 12:43:41 10° NNE 12:47:44 83° E 12:51:56 10° S
DELTA 2 DEB (DPAF) 4.1 12:44:26 10° SSE 12:48:42 85° WSW 12:53:01 10° NNW
Cosmos 1515 4.3 12:46:19 10° NNW 12:49:35 33° W 12:52:51 10° SSW
SL-16 R/B 2.7 23:36:26 10° NNW 23:42:05 70° WSW 23:47:40 10° S
APEX 3.7 23:48:55 10° SW 23:51:58 43° WNW 23:54:45 10° N
Cosmos 1943 3.7 23:47:30 10° N 23:52:44 38° ENE 23:57:56 10° SE
Cosmos-2242 3.0 23:49:06 10° S 23:53:26 84° E 23:57:46 10° N
CZ-2D R/B 4.1 23:49:50 10° S 23:53:26 53° W 23:57:01 10° NNW
